Location: Chefe Rosa
(16.7419°S, 37.1464°E)
Time: 11:14:08
(UTC+00:00)

Daily predictions for brighter satellites

Satellite Brightness Start Highest point End
(mag) Time Altitude Azimuth Time Altitude Azimuth Time Altitude Azimuth
YAOGAN 6 2.9 15:37:56 10° S 15:41:39 77° W 15:45:20 10° NNW
Helios 1A Rocket 3.9 15:38:43 10° SE 15:42:13 27° E 15:45:40 10° NNE
COSMOS 2455 2.9 15:38:39 10° NNW 15:44:38 78° ENE 15:50:39 10° SSE
SWIFT 2.4 15:41:31 10° WNW 15:45:48 77° NNE 15:50:04 10° E
Cosmos 1452 Rocket 4.1 15:42:55 10° NNE 15:47:44 37° E 15:52:35 10° SE
COSMOS 2406 3.2 15:41:59 10° S 15:47:46 70° ESE 15:53:29 10° NNE
GPS 2-18 Rocket1 4.4 15:45:06 10° W 15:48:51 39° NNW 15:52:37 10° NE
Okean O Rocket 2.7 15:44:39 10° S 15:48:52 49° WSW 15:53:03 10° NNW
AQUARIUS 4.4 15:46:27 10° S 15:50:58 75° WSW 15:55:27 10° NNW
Cosmos 1939 Rocket 4.1 15:48:19 10° SE 15:51:22 21° E 15:54:22 10° NNE
Meteor 2-2 Rocket 4.3 15:47:13 10° N 15:52:58 74° E 15:58:54 10° S
Delta 168 4.2 15:49:03 10° W 15:53:34 47° S 16:00:07 11° ESE
CZ-4B R/B 4.2 15:49:52 10° S 15:55:03 48° WSW 16:00:08 10° NNW
Cosmos 304 Rocket 4.4 15:51:05 10° NNE 15:55:22 34° E 15:59:41 10° SE
Cosmos 2221 2.7 15:51:18 10° N 15:55:33 80° W 15:59:53 10° S
Orbus 7S 2.4 15:53:15 10° WNW 15:55:51 82° NNE 15:58:26 13° ESE
Delta 2 Rocket 4.3 15:50:23 10° WSW 15:56:58 75° SSE 16:04:52 10° ENE
Cosmos 2082 Rocket 3.1 15:52:18 10° SSE 15:57:07 27° ESE 16:01:53 10° NE
Cosmos 2218 Rocket 4.4 15:53:17 10° SSE 15:59:12 41° E 16:04:58 10° NNE
Cosmos 1346 Rocket 3.4 15:56:20 10° SSW 16:00:15 61° W 16:04:08 10° N
IRS-1C Rocket 4.2 15:55:41 10° SSE 16:00:52 54° ENE 16:06:01 10° N
SL-24 R/B 4.0 16:01:59 10° N 16:05:59 87° W 16:10:34 10° SSW
NOSS 3-2 (A) 3.2 16:02:23 10° SSW 16:08:00 57° ESE 16:13:15 10° NE
NOSS 3-2 (C) 3.8 16:09:52 10° S 16:15:01 33° ESE 16:19:52 10° NE
SEDSat Delta rocket 3.6 16:12:22 10° W 16:16:14 42° SSW 16:19:06 17° SE
Cosmos 614 Rocket 3.8 16:13:58 10° S 16:19:04 76° ESE 16:24:09 10° NNE
Hubble Space Telescope 2.7 16:16:29 10° SW 16:19:12 17° S 16:20:40 14° SSE
Delta 198 4.1 16:16:54 10° W 16:20:22 36° S 16:22:26 21° SE
Cosmos 1867 3.7 16:17:29 10° SSW 16:22:52 78° WNW 16:28:15 10° NNE
Nadezhda 3 Rocket 4.1 16:17:46 10° NNE 16:23:41 51° E 16:29:39 10° SSE
NOAA 11 4.2 16:18:28 10° SSE 16:23:56 89° WSW 16:29:21 10° NNW
Cosmos 332 Rocket 4.3 16:19:24 10° NNW 16:24:12 61° WSW 16:29:06 10° S
Mugunghwa Rocket 4.5 16:17:49 10° NW 16:24:38 51° NNE 16:28:27 24° E
OAO 3 Rocket 4.1 16:22:39 10° SW 16:26:49 30° SSE 16:28:04 26° SE
Cosmos 1959 Rocket 4.4 16:21:10 10° S 16:27:24 76° E 16:33:39 10° N
GPS 2-04 Rocket1 3.7 16:29:35 10° W 16:33:08 36° SSW 16:34:40 24° SSE
Aurora 2 Rocket 1.9 16:30:07 10° WSW 16:33:11 54° SSE 16:33:36 49° SE
CZ-4 R/B 4.4 16:29:00 10° S 16:33:12 90° W 16:37:21 10° NNW
GPS 2-12 Rocket1 3.1 16:30:47 10° W 16:35:11 60° S 16:36:38 38° ESE
Cosmos 2369 Rocket 2.2 16:30:25 10° NNW 16:36:06 85° WSW 16:41:51 10° SSE
YAOGAN 1 2.6 16:36:33 27° SSE 16:38:45 56° E 16:42:59 10° N
GPS 2-14 Rocket1 2.9 16:36:00 10° WNW 16:40:06 59° NNE 16:40:58 47° ENE
CZ-2C R/B 2.5 16:37:00 10° NNE 16:42:15 66° ESE 16:47:42 10° S
Cosmos 2263 4.1 16:37:06 10° N 16:42:48 74° ENE 16:46:52 20° SSE
Cosmos 1633 4.3 16:40:01 10° SSW 16:43:19 34° W 16:46:33 10° NNW
Cosmos 1833 Rocket 3.7 16:38:28 10° SSW 16:43:51 47° WNW 16:49:11 10° N
Centaur D-1A AC-32 2.8 16:40:49 10° NW 16:44:05 36° NNE 16:44:34 35° NE
Milstar 3 4.0 16:36:54 10° NW 16:44:50 55° NE 16:51:41 29° E
Chunghua 1 4.3 16:41:25 10° NW 16:45:04 81° NNE 16:45:14 77° E
Cosmos 1656 Rocket 3.8 16:39:40 10° N 16:45:04 51° ENE 16:46:47 38° SE
CZ-4 R/B 1.2 16:42:56 22° S 16:45:21 86° WSW 16:49:12 10° NNW
Atlas Centaur 2 3.3 16:44:37 10° SSW 16:45:51 14° S 16:45:51 14° S
DMSP B5D2-2 4.0 16:42:22 10° NNE 16:47:36 71° ESE 16:52:53 10° S
Cosmos 1110 Rocket 3.9 16:43:49 10° N 16:48:59 61° ENE 16:50:37 41° SE
ATLAS 3B R/B 4.2 16:46:38 10° S 16:49:09 18° SSE 16:49:09 18° SSE
CZ-4C R/B 3.6 16:46:35 10° NW 16:54:58 59° WSW 17:02:47 10° SSE
Cosmos 1743 Rocket 4.5 16:53:19 10° SSW 16:57:34 48° W 17:01:47 10° NNW
Cosmos 1943 Rocket 4.1 16:56:01 10° NW 17:00:37 27° WSW 17:05:15 10° SSW
deb Centaur AC-2 4.4 16:59:57 10° WSW 17:04:24 65° NNW 17:05:02 58° NNE
Okean-O 4.4 17:07:29 10° SSW 17:11:24 30° WSW 17:15:17 10° NW
CZ-2C R/B 3.5 17:18:51 51° N 17:18:51 51° N 17:22:31 10° N
Delta 128 4.3 17:20:40 10° WNW 17:25:56 79° W 17:25:56 79° W
CENTAUR R/B 2.7 17:21:44 10° SW 17:26:45 49° WNW 17:28:11 38° NNW
SWIFT 4.2 17:23:35 10° W 17:25:51 29° WSW 17:25:51 29° WSW
CSL-04 Rocket 4.1 17:33:03 56° WSW 17:33:08 56° WSW 17:38:21 10° NNW
H-2A R/B 3.6 17:39:45 28° NNW 17:39:45 28° NNW 17:42:09 10° NNW
Cosmos 2082 Rocket 4.4 17:36:27 10° SW 17:40:54 24° WNW 17:45:22 10° NNW
Milstar 3 Cent rocket 4.4 17:48:33 10° SW 17:49:15 13° SW 17:49:15 13° SW
